SAA419 FAOR-FAPE

Flight info

Callsign SAA419
Flight time 1h 18m
Altitude 34000
Route OVALA UZ18 NEVEN UQ8 ALKAT DCT PEV
Aircraft A320/M-SDE3FGHIRWY/LB1

Departure

Time 2026-04-24 10:16
Airport O.R. Tambo International Airport (FAOR)

Arrival

Time 2026-04-24 11:34
Airport Chief Dawid Stuurman International Airport (FAPE)
Time Latitude Longitude Altitude Speed Heading
2026-04-24 09:54 -26.13536 28.23264 5551 ft 0 kts 277°
2026-04-24 10:08 -26.13537 28.23270 5547 ft 4 kts 276°
2026-04-24 10:09 -26.13539 28.23300 5548 ft 4 kts 270°
2026-04-24 10:09 -26.13537 28.23330 5550 ft 4 kts 258°
2026-04-24 10:09 -26.13528 28.23356 5548 ft 4 kts 217°
2026-04-24 10:09 -26.13517 28.23362 5549 ft 1 kts 186°
2026-04-24 10:10 -26.13515 28.23363 5551 ft 0 kts 186°
2026-04-24 10:12 -26.13530 28.23361 5548 ft 6 kts 186°
2026-04-24 10:13 -26.13598 28.23353 5547 ft 11 kts 186°
2026-04-24 10:13 -26.13678 28.23343 5548 ft 12 kts 186°
2026-04-24 10:13 -26.13761 28.23334 5548 ft 12 kts 185°
2026-04-24 10:13 -26.13856 28.23310 5551 ft 15 kts 195°
2026-04-24 10:14 -26.13977 28.23277 5549 ft 21 kts 194°
2026-04-24 10:14 -26.14135 28.23228 5548 ft 24 kts 195°
2026-04-24 10:14 -26.14280 28.23206 5559 ft 18 kts 167°
2026-04-24 10:14 -26.14380 28.23235 5564 ft 14 kts 165°
2026-04-24 10:15 -26.14473 28.23262 5564 ft 14 kts 165°
2026-04-24 10:15 -26.14564 28.23290 5564 ft 14 kts 161°
2026-04-24 10:15 -26.14614 28.23378 5563 ft 15 kts 106°
2026-04-24 10:15 -26.14591 28.23451 5562 ft 8 kts 11°
2026-04-24 10:16 -26.14465 28.23490 5560 ft 48 kts 14°
2026-04-24 10:16 -26.13897 28.23666 5561 ft 118 kts 15°
2026-04-24 10:16 -26.12911 28.23969 5551 ft 172 kts 15°
2026-04-24 10:16 -26.11731 28.24332 6293 ft 174 kts 16°
2026-04-24 10:17 -26.10568 28.24684 7203 ft 172 kts 15°
2026-04-24 10:17 -26.09413 28.25213 7724 ft 192 kts 38°
2026-04-24 10:17 -26.08680 28.26532 7911 ft 219 kts 78°
2026-04-24 10:17 -26.08736 28.27696 8006 ft 241 kts 106°
2026-04-24 10:18 -26.10270 28.29694 8375 ft 278 kts 148°
2026-04-24 10:18 -26.12080 28.30649 8791 ft 296 kts 159°
2026-04-24 10:18 -26.13375 28.31157 9238 ft 300 kts 162°
2026-04-24 10:18 -26.16057 28.32121 10207 ft 306 kts 162°
2026-04-24 10:19 -26.17402 28.32624 10583 ft 312 kts 162°
2026-04-24 10:19 -26.19526 28.33474 10752 ft 336 kts 160°
2026-04-24 10:19 -26.21773 28.34447 10922 ft 356 kts 159°
2026-04-24 10:19 -26.24098 28.35515 11443 ft 364 kts 158°
2026-04-24 10:20 -26.26442 28.36625 12059 ft 368 kts 158°
2026-04-24 10:20 -26.28802 28.37755 12704 ft 371 kts 158°
2026-04-24 10:20 -26.31185 28.38895 13361 ft 374 kts 158°
2026-04-24 10:20 -26.33587 28.40043 14037 ft 377 kts 158°
2026-04-24 10:21 -26.36012 28.41199 14634 ft 380 kts 158°
2026-04-24 10:21 -26.38456 28.42360 15174 ft 384 kts 158°
2026-04-24 10:21 -26.40924 28.43527 15695 ft 387 kts 158°
2026-04-24 10:21 -26.43417 28.44704 16230 ft 391 kts 159°
2026-04-24 10:22 -26.45931 28.45888 16757 ft 394 kts 159°
2026-04-24 10:22 -26.48469 28.47083 17308 ft 398 kts 159°
2026-04-24 10:22 -26.51036 28.48294 17835 ft 402 kts 159°
2026-04-24 10:22 -26.53623 28.49523 18360 ft 407 kts 159°
2026-04-24 10:23 -26.56240 28.50767 18852 ft 411 kts 159°
2026-04-24 10:23 -26.58884 28.52023 19333 ft 415 kts 159°
2026-04-24 10:23 -26.61553 28.53291 19825 ft 419 kts 159°
2026-04-24 10:23 -26.64245 28.54568 20329 ft 422 kts 159°
2026-04-24 10:24 -26.66958 28.55854 20822 ft 426 kts 159°
2026-04-24 10:24 -26.69696 28.57155 21313 ft 429 kts 159°
2026-04-24 10:24 -26.72454 28.58468 21786 ft 433 kts 159°
2026-04-24 10:24 -26.75263 28.59695 22243 ft 434 kts 167°
2026-04-24 10:25 -26.78218 28.60337 22704 ft 432 kts 179°
2026-04-24 10:25 -26.81209 28.60297 23159 ft 429 kts 191°
2026-04-24 10:25 -26.84110 28.59600 23590 ft 426 kts 203°
2026-04-24 10:25 -26.86810 28.58293 23995 ft 422 kts 214°
2026-04-24 10:26 -26.89219 28.56452 24361 ft 418 kts 223°
2026-04-24 10:26 -26.91522 28.54449 24727 ft 420 kts 223°
2026-04-24 10:26 -26.93839 28.52439 25092 ft 422 kts 223°
2026-04-24 10:26 -26.96172 28.50419 25456 ft 424 kts 223°
2026-04-24 10:27 -26.98512 28.48394 25815 ft 426 kts 223°
2026-04-24 10:27 -27.00861 28.46361 26159 ft 428 kts 223°
2026-04-24 10:27 -27.03222 28.44316 26501 ft 430 kts 223°
2026-04-24 10:27 -27.05591 28.42262 26848 ft 431 kts 223°
2026-04-24 10:28 -27.07969 28.40198 27199 ft 433 kts 223°
2026-04-24 10:28 -27.10355 28.38124 27540 ft 435 kts 223°
2026-04-24 10:28 -27.12750 28.36036 27874 ft 437 kts 223°
2026-04-24 10:28 -27.15152 28.33941 28204 ft 439 kts 223°
2026-04-24 10:29 -27.17567 28.31831 28540 ft 440 kts 223°
2026-04-24 10:29 -27.19986 28.29713 28872 ft 442 kts 223°
2026-04-24 10:29 -27.22414 28.27592 29319 ft 441 kts 223°
2026-04-24 10:29 -27.24830 28.25484 29809 ft 439 kts 224°
2026-04-24 10:30 -27.27238 28.23381 30303 ft 438 kts 224°
2026-04-24 10:30 -27.29636 28.21286 30720 ft 436 kts 224°
2026-04-24 10:30 -27.32030 28.19196 31101 ft 435 kts 224°
2026-04-24 10:30 -27.34418 28.17109 31480 ft 435 kts 224°
2026-04-24 10:31 -27.36802 28.15020 31853 ft 434 kts 225°
2026-04-24 10:31 -27.39180 28.12935 32228 ft 433 kts 225°
2026-04-24 10:31 -27.41554 28.10851 32612 ft 433 kts 225°
2026-04-24 10:31 -27.43931 28.08770 33002 ft 432 kts 225°
2026-04-24 10:32 -27.46288 28.06743 33375 ft 434 kts 222°
2026-04-24 10:32 -27.48909 28.04989 33748 ft 443 kts 213°
2026-04-24 10:32 -27.51792 28.03676 34120 ft 452 kts 205°
2026-04-24 10:32 -27.54801 28.02619 34301 ft 454 kts 205°
2026-04-24 10:33 -27.57841 28.01549 34328 ft 461 kts 205°
2026-04-24 10:33 -27.64005 27.99375 34325 ft 465 kts 205°
2026-04-24 10:34 -27.70189 27.97201 34326 ft 466 kts 205°
2026-04-24 10:34 -27.76373 27.95016 34324 ft 465 kts 205°
2026-04-24 10:35 -27.82549 27.92824 34327 ft 465 kts 205°
2026-04-24 10:35 -27.88730 27.90635 34330 ft 466 kts 205°
2026-04-24 10:36 -27.94917 27.88448 34339 ft 466 kts 203°
2026-04-24 10:36 -28.01117 27.86240 34306 ft 468 kts 203°
2026-04-24 10:37 -28.07321 27.83961 34303 ft 469 kts 204°
2026-04-24 10:37 -28.13536 27.81647 34313 ft 471 kts 204°
2026-04-24 10:38 -28.19765 27.79331 34313 ft 472 kts 204°
2026-04-24 10:38 -28.26010 27.77028 34323 ft 472 kts 204°
2026-04-24 10:39 -28.32264 27.74725 34328 ft 473 kts 204°
2026-04-24 10:39 -28.38518 27.72414 34332 ft 473 kts 204°
2026-04-24 10:40 -28.44772 27.70090 34335 ft 473 kts 204°
2026-04-24 10:40 -28.51027 27.67761 34339 ft 473 kts 204°
2026-04-24 10:41 -28.57282 27.65434 34341 ft 473 kts 204°
2026-04-24 10:41 -28.63531 27.63106 34338 ft 472 kts 204°
2026-04-24 10:42 -28.69770 27.60783 34336 ft 472 kts 204°
2026-04-24 10:42 -28.76001 27.58455 34336 ft 471 kts 204°
2026-04-24 10:43 -28.82226 27.56134 34333 ft 470 kts 204°
2026-04-24 10:43 -28.88443 27.53810 34329 ft 470 kts 204°
2026-04-24 10:44 -28.94643 27.51486 34323 ft 469 kts 204°
2026-04-24 10:44 -29.00832 27.49163 34323 ft 468 kts 204°
2026-04-24 10:45 -29.07017 27.46843 34321 ft 467 kts 204°
2026-04-24 10:45 -29.13191 27.44522 34315 ft 467 kts 204°
2026-04-24 10:46 -29.19362 27.42202 34304 ft 466 kts 204°
2026-04-24 10:46 -29.25524 27.39876 34315 ft 466 kts 204°
2026-04-24 10:47 -29.31639 27.37572 34307 ft 466 kts 204°
2026-04-24 10:47 -29.37785 27.35240 34298 ft 465 kts 204°
2026-04-24 10:48 -29.43974 27.32897 34300 ft 465 kts 204°
2026-04-24 10:48 -29.50114 27.30582 34302 ft 465 kts 204°
2026-04-24 10:49 -29.56210 27.28271 34296 ft 464 kts 204°
2026-04-24 10:49 -29.62343 27.25936 34294 ft 464 kts 204°
2026-04-24 10:50 -29.68468 27.23607 34295 ft 464 kts 204°
2026-04-24 10:50 -29.74596 27.21272 34291 ft 464 kts 204°
2026-04-24 10:51 -29.80719 27.18934 34284 ft 463 kts 204°
2026-04-24 10:51 -29.86841 27.16597 34287 ft 463 kts 204°
2026-04-24 10:52 -29.92958 27.14261 34288 ft 463 kts 204°
2026-04-24 10:52 -29.99068 27.11925 34289 ft 463 kts 204°
2026-04-24 10:53 -30.05179 27.09586 34282 ft 462 kts 204°
2026-04-24 10:53 -30.11286 27.07239 34280 ft 462 kts 204°
2026-04-24 10:54 -30.17384 27.04890 34276 ft 462 kts 204°
2026-04-24 10:54 -30.23488 27.02538 34272 ft 462 kts 204°
2026-04-24 10:55 -30.29579 27.00193 34278 ft 462 kts 204°
2026-04-24 10:55 -30.35670 26.97848 34272 ft 461 kts 204°
2026-04-24 10:56 -30.41754 26.95492 34270 ft 461 kts 204°
2026-04-24 10:56 -30.47843 26.93138 34267 ft 461 kts 204°
2026-04-24 10:57 -30.53921 26.90781 34268 ft 461 kts 204°
2026-04-24 10:57 -30.60005 26.88429 34269 ft 461 kts 203°
2026-04-24 10:58 -30.66082 26.86076 34269 ft 460 kts 204°
2026-04-24 10:58 -30.72153 26.83710 34267 ft 460 kts 204°
2026-04-24 10:59 -30.78219 26.81343 34254 ft 460 kts 204°
2026-04-24 10:59 -30.83259 26.79380 34260 ft 460 kts 203°
2026-04-24 11:00 -30.89318 26.77014 34253 ft 459 kts 204°
2026-04-24 11:00 -30.96396 26.74238 34258 ft 459 kts 203°
2026-04-24 11:01 -31.01433 26.72271 34262 ft 459 kts 203°
2026-04-24 11:01 -31.07491 26.69901 34254 ft 459 kts 203°
2026-04-24 11:02 -31.13541 26.67528 34256 ft 459 kts 203°
2026-04-24 11:02 -31.19590 26.65158 34256 ft 458 kts 203°
2026-04-24 11:03 -31.25632 26.62775 34243 ft 458 kts 203°
2026-04-24 11:03 -31.31677 26.60391 34239 ft 458 kts 203°
2026-04-24 11:04 -31.37724 26.58007 34230 ft 458 kts 203°
2026-04-24 11:04 -31.43764 26.55617 34227 ft 459 kts 203°
2026-04-24 11:05 -31.49814 26.53232 34216 ft 458 kts 203°
2026-04-24 11:05 -31.55856 26.50842 34214 ft 458 kts 203°
2026-04-24 11:06 -31.61890 26.48439 34203 ft 458 kts 203°
2026-04-24 11:06 -31.67740 26.46118 34196 ft 458 kts 203°
2026-04-24 11:07 -31.76793 26.42517 34184 ft 458 kts 203°
2026-04-24 11:07 -31.82820 26.40107 34176 ft 458 kts 203°
2026-04-24 11:08 -31.88854 26.37693 34169 ft 458 kts 203°
2026-04-24 11:08 -31.94894 26.35284 34169 ft 458 kts 203°
2026-04-24 11:09 -32.00897 26.32882 34166 ft 459 kts 203°
2026-04-24 11:09 -32.06942 26.30464 34156 ft 459 kts 203°
2026-04-24 11:10 -32.12989 26.28038 34154 ft 459 kts 203°
2026-04-24 11:10 -32.19033 26.25601 34154 ft 459 kts 203°
2026-04-24 11:11 -32.25078 26.23163 34154 ft 458 kts 203°
2026-04-24 11:11 -32.31094 26.20738 34167 ft 455 kts 203°
2026-04-24 11:12 -32.37100 26.18315 33032 ft 462 kts 203°
2026-04-24 11:12 -32.40145 26.17085 32510 ft 460 kts 203°
2026-04-24 11:12 -32.43181 26.15860 32256 ft 462 kts 203°
2026-04-24 11:13 -32.46224 26.14631 32002 ft 463 kts 203°
2026-04-24 11:13 -32.49273 26.13392 31751 ft 463 kts 203°
2026-04-24 11:13 -32.52315 26.12159 31502 ft 462 kts 203°
2026-04-24 11:13 -32.55355 26.10930 31257 ft 461 kts 203°
2026-04-24 11:14 -32.58385 26.09702 31008 ft 459 kts 203°
2026-04-24 11:14 -32.61400 26.08477 30765 ft 457 kts 203°
2026-04-24 11:14 -32.64393 26.07257 30369 ft 453 kts 203°
2026-04-24 11:14 -32.67366 26.06047 29755 ft 450 kts 203°
2026-04-24 11:15 -32.70314 26.04851 29198 ft 445 kts 203°
2026-04-24 11:15 -32.73230 26.03668 28654 ft 441 kts 203°
2026-04-24 11:15 -32.76118 26.02491 28099 ft 437 kts 203°
2026-04-24 11:15 -32.78981 26.01320 27566 ft 434 kts 202°
2026-04-24 11:16 -32.81826 26.00156 27024 ft 430 kts 202°
2026-04-24 11:16 -32.84646 25.99003 26502 ft 428 kts 202°
2026-04-24 11:16 -32.87453 25.97858 25974 ft 425 kts 202°
2026-04-24 11:16 -32.90248 25.96717 25455 ft 423 kts 202°
2026-04-24 11:17 -32.93031 25.95579 24947 ft 421 kts 202°
2026-04-24 11:17 -32.95797 25.94448 24445 ft 420 kts 202°
2026-04-24 11:17 -32.98556 25.93320 23963 ft 419 kts 202°
2026-04-24 11:17 -33.01306 25.92199 23447 ft 417 kts 202°
2026-04-24 11:18 -33.04045 25.91083 22947 ft 415 kts 202°
2026-04-24 11:18 -33.06762 25.89972 22490 ft 412 kts 202°
2026-04-24 11:18 -33.09465 25.88865 22027 ft 409 kts 202°
2026-04-24 11:18 -33.12150 25.87761 21565 ft 407 kts 202°
2026-04-24 11:19 -33.14820 25.86663 21095 ft 405 kts 202°
2026-04-24 11:19 -33.17478 25.85568 20622 ft 403 kts 202°
2026-04-24 11:19 -33.20147 25.84545 20129 ft 402 kts 199°
2026-04-24 11:19 -33.22845 25.83661 19644 ft 402 kts 197°
2026-04-24 11:20 -33.25555 25.82867 19137 ft 401 kts 196°
2026-04-24 11:20 -33.28268 25.82110 18633 ft 400 kts 195°
2026-04-24 11:20 -33.30971 25.81356 18082 ft 399 kts 195°
2026-04-24 11:20 -33.33663 25.80587 17552 ft 396 kts 196°
2026-04-24 11:21 -33.36330 25.79801 17029 ft 393 kts 196°
2026-04-24 11:21 -33.38973 25.79005 16515 ft 390 kts 196°
2026-04-24 11:21 -33.41593 25.78206 15995 ft 387 kts 197°
2026-04-24 11:21 -33.44190 25.77407 15465 ft 384 kts 197°
2026-04-24 11:22 -33.46770 25.76614 14948 ft 382 kts 197°
2026-04-24 11:22 -33.49303 25.75840 14446 ft 380 kts 196°
2026-04-24 11:22 -33.51860 25.75061 13920 ft 378 kts 196°
2026-04-24 11:22 -33.54403 25.74288 13372 ft 376 kts 196°
2026-04-24 11:23 -33.56929 25.73521 12851 ft 373 kts 196°
2026-04-24 11:23 -33.59432 25.72759 12350 ft 369 kts 196°
2026-04-24 11:23 -33.61913 25.72002 11844 ft 367 kts 195°
2026-04-24 11:23 -33.64379 25.71252 11340 ft 365 kts 195°
2026-04-24 11:24 -33.66835 25.70508 10848 ft 363 kts 195°
2026-04-24 11:24 -33.69274 25.69765 10432 ft 359 kts 195°
2026-04-24 11:24 -33.71646 25.69041 10313 ft 345 kts 195°
2026-04-24 11:24 -33.73962 25.68333 10189 ft 333 kts 195°
2026-04-24 11:25 -33.76175 25.67657 10072 ft 323 kts 195°
2026-04-24 11:25 -33.78322 25.67000 9926 ft 315 kts 195°
2026-04-24 11:25 -33.80393 25.66237 9673 ft 308 kts 208°
2026-04-24 11:25 -33.82081 25.64737 9392 ft 300 kts 227°
2026-04-24 11:26 -33.83521 25.62931 9075 ft 298 kts 230°
2026-04-24 11:26 -33.84823 25.61018 8759 ft 294 kts 238°
2026-04-24 11:26 -33.85934 25.59000 8468 ft 292 kts 240°
2026-04-24 11:26 -33.87028 25.56948 8163 ft 290 kts 240°
2026-04-24 11:27 -33.88110 25.54902 7865 ft 288 kts 240°
2026-04-24 11:27 -33.89193 25.52844 7562 ft 287 kts 240°
2026-04-24 11:27 -33.90245 25.50843 7263 ft 286 kts 240°
2026-04-24 11:27 -33.91305 25.48826 6960 ft 285 kts 240°
2026-04-24 11:28 -33.92361 25.46819 6660 ft 283 kts 240°
2026-04-24 11:28 -33.93408 25.44824 6364 ft 281 kts 240°
2026-04-24 11:28 -33.94460 25.42811 6098 ft 280 kts 240°
2026-04-24 11:28 -33.95474 25.40876 5685 ft 276 kts 240°
2026-04-24 11:29 -33.96500 25.38938 5225 ft 272 kts 239°
2026-04-24 11:29 -33.97759 25.37292 4961 ft 262 kts 218°
2026-04-24 11:29 -33.99362 25.36367 4712 ft 255 kts 195°
2026-04-24 11:29 -34.01109 25.36261 4371 ft 251 kts 171°
2026-04-24 11:30 -34.02725 25.36976 4086 ft 247 kts 147°
2026-04-24 11:30 -34.03985 25.38347 3836 ft 243 kts 124°
2026-04-24 11:30 -34.04727 25.40140 3588 ft 237 kts 103°
2026-04-24 11:30 -34.05137 25.42046 3407 ft 231 kts 101°
2026-04-24 11:31 -34.05528 25.43862 3290 ft 218 kts 102°
2026-04-24 11:31 -34.05871 25.45601 3087 ft 208 kts 93°
2026-04-24 11:31 -34.05772 25.47299 2792 ft 200 kts 70°
2026-04-24 11:31 -34.05188 25.48793 2416 ft 196 kts 54°
2026-04-24 11:32 -34.04481 25.50157 2129 ft 188 kts 54°
2026-04-24 11:32 -34.03803 25.51460 1873 ft 178 kts 53°
2026-04-24 11:32 -34.03172 25.52680 1638 ft 164 kts 55°
2026-04-24 11:32 -34.02591 25.53804 1447 ft 151 kts 54°
2026-04-24 11:33 -34.02060 25.54832 1258 ft 139 kts 54°
2026-04-24 11:33 -34.01558 25.55802 1071 ft 134 kts 54°
2026-04-24 11:33 -34.01066 25.56751 897 ft 133 kts 56°
2026-04-24 11:33 -34.00581 25.57688 723 ft 132 kts 58°
2026-04-24 11:34 -34.00095 25.58624 541 ft 132 kts 58°
2026-04-24 11:34 -33.99613 25.59557 326 ft 131 kts 58°
2026-04-24 11:34 -33.99137 25.60476 215 ft 121 kts 58°
2026-04-24 11:34 -33.98807 25.61118 213 ft 49 kts 58°
2026-04-24 11:35 -33.98688 25.61352 219 ft 30 kts 58°
2026-04-24 11:35 -33.98579 25.61559 213 ft 29 kts 58°
2026-04-24 11:35 -33.98496 25.61703 211 ft 14 kts 28°
2026-04-24 11:35 -33.98422 25.61657 216 ft 13 kts 322°
2026-04-24 11:36 -33.98369 25.61612 214 ft 6 kts 322°
2026-04-24 11:36 -33.98370 25.61559 216 ft 8 kts 244°
2026-04-24 11:36 -33.98398 25.61501 215 ft 9 kts 238°
2026-04-24 11:36 -33.98428 25.61431 212 ft 10 kts 249°
2026-04-24 11:37 -33.98449 25.61367 215 ft 8 kts 245°
2026-04-24 11:37 -33.98456 25.61353 213 ft 0 kts 237°
2026-04-24 11:37 -33.98462 25.61340 216 ft 4 kts 243°
2026-04-24 11:38 -33.98447 25.61314 214 ft 4 kts 330°
2026-04-24 11:38 -33.98418 25.61293 212 ft 2 kts 327°
2026-04-24 11:38 -33.98416 25.61291 215 ft 0 kts 327°